Find Starlink 4146

NORAD ID: 53294 Int'l Des: 2022-086 Owner: SPXS Country: US Constellation: starlink operational
LEOCIRCULAR

Current View

Loading 3D Globe...

About Starlink 4146

Description loading...

Upcoming Passes

Passes for default location (London). Set your location on the main map for personalized predictions.

Altitude History

Loading altitude history...

Two-Line Element Set

1 53294U 22086BE 26145.41007519 .00001957 00000-0 14097-3 0 9992
2 53294 53.2143 189.5455 0001243 85.2614 274.8520 15.08852809212959
Epoch: May 25, 2026 • Age: 24 hours

Current Status

Altitude 542.2 km
Velocity 7.59 km/s
Sub-Earth Point -8.46°S, 150.15°E
Launch Date Jul 24, 2022
Age 3.8 years
Type internet

Technical Details

Classification Payload
Mass 297.00 kg
Dry Mass 275.00 kg
Total Mass 297.00 kg
Length 0.20 m
Diameter 2.80 m
Span 9.00 m
Shape Box + pan
Manufacturer SPXS
Bus Type Starlink
Phase Status In Orbit
Owner/State SPXS/US

Most Searched